EHI
0 0 0 0 0 0 0 0 0 0 0 0 0 0 0 0 0 0 0 0 0 0 0 0 0 0 0 0 0 0 0 0 0 0 0 0 0 0 0 0 0 0 0
0 0 0 0 0 0 0 0 0 0 0 0 0 0 0 0 0 0 0 0 0 0 0 0 0 0 0 0 0 0 0 0 0 0 0 0 0 0 0 0 0 0 0
0 0 0 0 0 0 0 0 0 0 0 0 0 0 0 0 0 0 0 0 0 0 0 0 0 0 0 0 0 0 0 0 0 0 0 0 0 0 0 0 0 0 0
0 0 0 0 0 0 0 0 0 0 0 0 0 0 0 0 0 0 0 0 0 0 0 0 0 0 0 0 0 0 0 0 0 0 0 0 0 0 0 0 0 0 0
0 0 0 0 0 0 0 0 0 0 0 0 0 0 0 0 0 0 0 0 0 0 0 0 0 0 0 0 0 0 0 0 0 0 0 0 0 0 0 0 0 0 0
0 0 0 0 0 0 0 0 0 0 0 0 0 0 0 0 0 0 0 0 0 0 0 0 0 0 0 0 0 0 0 0 0 0 0 0 0 0 0 0 0 0 0
0 0 0 0 0 0 0 0 0 0 0 0 0 0 0 0 0 0 0 0 0 0 0 0 0 0 0 0 0 0 0 0 0 0 0 0 0 0 0 0 0 0 0
0 0 0 0 0 0 0 0 0 0 0 0 0 0 0 0 0 0 0 0 0 0 0 0 0 0 0 0 0 0 0 0 0 0 0 0 0 0 0 0 0 0 0
0 0 0 0 0 0 0 0 0 0 0 0 0 0 0 0 0 0 0 0 0 0 0 0 0 0 0 0 0 0 0 0 0 0 0 0 0 0 0 0 0 0 0
0 0 0 0 0 0 0 0 0 0 0 0 0 0 0 0 0 0 0 0 0 0 0 0 0 0 0 0 0 0 0 0 0 0 0 0 0 0 0 0 0 0 0
0 0 0 0 0 0 0 0 0 0 0 0 0 0 0 0 0 0 0 0 0 0 0 0 0 0 0 0 0 0 0 0 0 0 0 0 0 0 0 0 0 0 0
0 0 0 0 0 0 0 0 0 0 0 0 0 0 0 0 0 0 0 0 0 0 0 0 0 0 0 0 0 0 0 0 0 0 0 0 0 0 0 0 0 0 0
0 0 0 0 0 0 0 0 0 0 0 0 0 0 0 0 0 0 0 0 0 0 0 0 0 0 0 0 0 0 0 0 0 0 0 0 0 0 0 0 0 0 0
0 0 0 0 0 0 0 0 0 0 0 0 0 0 0 0 0 0 0 0 0 0 0 0 0 0 0 0 0 0 0 0 0 0 0 0 0 0 0 0 0 0 0
0 0 0 0 0 0 0 0 0 0 0 0 0 0 0 0 0 0 0 0 0 0 0 0 0 0 0 0 0 0 0 0 0 0 0 0 0 0 0 0 0 0 0
0 0 0 0 0 0 0 0 0 0 0 0 0 0 0 0 0 0 0 0 0 0 0 0 0 0 0 0 0 0 0 0 0 0 0 0 0 0 0 0 0 0 0
0 0 0 0 0 0 0 0 0 0 0 0 0 0 0 0 0 0 0 0 0 0 0 0 0 0 0 0 0 0 0 0 0 0 0 0 0 0 0 0 0 0 0
0 0 0 0 0 0 0 0 0 0 0 0 0 0 0 0 0 0 0 0 0 0 0 0 0 0 0 0 0 0 0 0 0 0 0 0 0 0 0 0 0 0 0
0 0 0 0 0 0 0 0 0 0 0 0 0 0 0 0 0 0 0 0 0 0 0 0 0 0 0 0 0 0 0 0 0 0 0 0 0 0 0 0 0 0 0
0 0 0 0 0 0 0 0 0 0 0 0 0 0 0 0 0 0 0 0 0 0 0 0 0 0 0 0 0 0 0 0 0 0 0 0 0 0 0 0 0 0 0
0 0 0 0 0 0 0 0 0 0 0 0 0 0 0 0 0 0 0 0 0 0 0 0 0 0 0 0 0 0 0 0 0 0 0 0 0 0 0 0 0 0 0
0 0 0 0 0 0 0 0 0 0 0 0 0 0 0 0 0 0 0 0 0 0 0 0 0 0 0 0 0 0 0 0 0 0 0 0 0 0 0 0 0 0 0
0 0 0 0 0 0 0 0 0 0 0 0 0 0 0 0 0 0 0 0 0 0 0 0 0 0 0 0 0 0 0 0 0 0 0 0 0 0 0 0 0 0 0
0 0 0 0 0 0 0 0 0 0 0 0 0 0 0 0 0 0 0 0 0 0 0 0 0 0 0 0 0 0 0 0 0 0 0 0 0 0 0 0 0 0 0
0 0 0 0 0 0 0 0 0 0 0 0 0 0 0 0 0 0 0 0 0 0 0 0 0 0 0 0 0 0 0 0 0 0 0 0 0 0 0 0 0 0 0
0 0 0 0 0 0 0 0 0 0 0 0 0 0 0 0 0 0 0 0 0 0 0 0 0 0 0 0 0 0 0 0 0 0 0 0 0 0 0 0 0 0 0
Wind_Speed
1 2 4 6 8 9 10 11 12 13 14 15 16 16 17 17 18 19 20 20 21 22 22 23 24 24 25 26 26 25 25 25 25 25 25 26 26 26 25 24 23 14 24
4 2 5 6 7 9 10 11 12 13 14 14 15 15 16 16 17 18 18 19 20 21 22 22 23 23 24 25 25 26 26 25 25 25 25 22 25 26 25 24 23 16 23
6 3 2 7 7 8 9 10 11 12 13 14 14 15 15 16 16 17 18 19 19 20 21 21 22 23 23 24 24 25 26 26 26 26 23 13 16 24 25 24 23 23 23
7 3 1 7 8 8 9 10 11 11 12 13 14 15 15 16 16 17 18 18 19 19 20 21 21 22 23 23 24 24 25 26 26 26 14 13 12 22 25 25 24 23 23
6 3 1 8 8 8 8 9 10 11 11 12 13 14 15 16 16 17 18 18 19 19 20 20 21 22 22 23 24 24 25 25 25 21 14 13 11 21 26 25 24 23 23
6 3 2 8 7 7 8 8 9 9 10 11 13 14 15 15 16 16 17 18 18 19 20 20 21 22 22 23 24 24 25 25 20 14 15 14 13 23 26 25 24 24 23
6 4 2 7 6 6 6 7 7 8 9 11 12 13 15 15 16 16 17 17 18 19 20 20 21 22 22 23 23 24 24 25 17 14 14 13 17 27 27 26 25 25 24
7 4 1 5 5 5 5 5 5 7 9 10 12 13 14 15 16 16 17 18 19 19 20 21 22 22 22 23 23 23 24 23 17 15 13 11 21 27 28 28 27 26 25
7 6 3 4 4 4 3 3 5 6 8 9 11 12 14 15 16 16 17 18 19 20 20 21 21 22 22 23 23 23 23 24 13 9 13 11 22 28 29 29 29 28 27
6 6 5 4 3 2 2 3 4 5 7 8 9 11 12 14 14 16 16 18 20 20 20 20 21 22 22 22 23 23 22 18 8 9 8 13 26 28 29 29 29 29 29
7 5 6 5 3 2 0 2 3 4 5 6 6 9 8 4 4 8 14 18 19 19 19 20 21 21 21 19 22 22 17 6 7 6 7 20 27 28 28 29 30 30 30
8 6 5 6 5 3 1 2 1 1 2 2 1 2 2 2 4 8 14 17 18 18 18 19 20 18 15 7 12 17 6 7 6 7 10 26 27 28 29 30 30 31 31
9 8 7 6 6 4 2 2 1 0 0 1 1 2 2 2 3 4 3 6 8 11 7 10 10 7 6 7 7 7 7 7 5 7 11 26 28 29 30 30 31 31 31
9 9 8 7 6 5 4 2 2 2 1 1 1 1 2 1 2 2 2 3 3 3 4 4 4 6 6 7 7 7 8 7 7 7 10 27 29 30 31 31 31 31 32
11 11 9 8 7 6 4 3 3 2 2 2 2 1 2 1 1 1 2 2 3 3 3 4 4 5 6 6 6 8 8 9 10 9 9 24 30 31 31 31 32 32 32
13 12 10 9 8 7 5 4 3 3 3 2 2 3 3 2 2 1 2 2 3 3 3 4 5 5 5 5 6 7 8 9 8 10 9 15 26 29 31 32 32 32 33
14 12 11 10 8 8 6 5 3 3 3 3 3 3 4 4 3 3 2 3 3 3 4 4 5 4 5 6 7 7 8 8 9 10 12 10 12 22 29 31 32 33 33
13 13 12 11 9 8 6 5 3 3 3 3 3 3 5 5 4 3 3 4 4 3 3 4 3 3 5 5 6 6 7 7 9 11 11 11 10 11 18 29 32 33 33
15 15 13 10 11 9 7 5 4 3 3 3 3 3 4 5 5 4 3 4 4 3 3 5 4 4 5 6 7 6 6 8 9 12 11 12 12 12 11 20 30 32 33
15 14 14 11 10 8 5 3 2 2 2 3 3 4 5 4 5 4 4 5 4 3 3 4 5 4 5 6 9 9 7 9 8 8 10 10 11 14 13 15 14 18 29
14 14 15 13 11 8 4 4 3 3 3 3 3 5 5 5 5 4 4 4 3 3 4 5 4 5 4 4 5 8 8 8 8 7 7 9 12 13 12 14 12 12 13
17 17 16 15 13 11 6 5 4 3 3 3 3 3 5 5 5 4 4 4 4 3 5 5 4 3 4 4 4 9 9 8 6 9 7 9 10 9 12 15 14 14 13
18 19 17 16 14 12 8 4 3 2 1 2 3 3 4 5 5 5 5 4 4 4 4 5 5 5 5 4 3 4 7 10 12 9 10 9 8 9 10 11 14 15 15
20 16 15 15 13 12 10 8 7 6 5 5 4 3 4 5 5 5 5 5 5 4 5 6 6 4 5 6 5 4 6 8 9 12 10 7 10 11 11 12 13 13 14
16 15 14 14 14 12 11 11 8 6 5 3 3 4 4 4 5 5 5 5 5 5 6 6 6 6 5 6 6 5 7 7 7 9 14 15 12 9 9 11 11 11 12
12 13 13 15 14 13 12 11 10 9 8 6 6 5 4 3 4 5 5 5 5 5 6 7 7 7 7 7 7 6 6 7 7 7 11 14 15 13 11 10 10 10 10
Wind_Direction
187 318 68 69 65 60 54 49 45 40 37 34 31 29 28 26 24 23 21 19 17 15 13 12 10 8 8 6 5 4 3 4 4 6 6 360 354 349 351 352 351 348 349
135 53 82 84 74 66 58 51 46 41 38 34 30 28 27 26 24 23 21 18 16 14 12 11 9 7 7 4 2 0 0 1 2 5 5 359 350 345 346 347 346 344 347
113 79 38 94 82 72 63 55 48 43 38 34 30 27 25 24 23 22 20 18 15 13 12 10 8 7 6 4 1 359 359 359 360 4 3 355 345 342 342 343 342 343 344
119 104 144 104 90 77 66 58 49 43 39 34 29 26 24 23 22 21 19 17 14 13 12 10 8 6 5 3 0 359 359 358 360 2 1 352 345 338 338 339 339 339 339
119 114 167 110 96 81 68 59 50 42 38 34 29 25 23 22 20 20 17 15 13 12 11 9 8 7 5 3 1 1 360 358 5 4 356 348 344 333 335 335 334 334 334
133 139 162 117 103 86 71 60 51 42 36 33 29 26 24 21 19 20 16 13 12 11 10 9 8 7 5 4 2 0 359 358 16 2 352 343 341 328 332 332 332 330 329
154 168 174 125 114 100 79 61 52 42 36 33 30 28 25 20 17 20 14 12 12 11 10 9 8 8 7 5 2 359 358 360 13 355 344 340 331 328 330 330 329 326 325
156 159 107 118 111 102 90 66 51 45 36 34 30 29 27 20 15 19 12 11 12 10 10 8 8 7 6 4 1 359 360 5 5 347 337 340 326 329 329 328 326 323 320
147 137 109 77 66 64 55 62 52 48 38 35 30 29 28 20 15 17 11 9 11 9 9 7 7 7 6 3 359 358 2 1 357 340 339 333 326 330 327 325 322 320 317
141 138 135 122 104 69 5 16 49 47 37 35 26 27 30 22 16 16 8 9 9 8 6 4 4 5 5 0 356 356 360 356 337 336 334 323 329 327 324 322 319 317 314
153 152 151 143 131 111 218 54 41 37 32 41 25 25 37 20 355 16 3 9 7 5 4 1 0 2 1 355 351 353 355 338 330 330 326 324 327 325 324 321 318 315 311
173 175 169 158 152 143 128 87 50 57 56 72 85 62 62 31 6 25 8 7 4 2 0 356 356 357 354 342 343 348 338 332 329 326 326 325 324 324 322 319 316 312 309
178 178 176 169 162 158 162 173 172 167 163 78 83 100 78 52 25 21 12 2 356 356 353 349 347 340 333 332 330 329 330 333 325 320 318 321 323 321 318 316 313 310 306
176 183 181 173 167 171 174 186 191 190 193 197 195 136 101 62 30 11 2 343 341 333 325 322 315 314 313 312 313 317 323 322 318 315 310 320 320 318 316 313 311 308 304
182 183 183 176 173 173 176 199 184 198 202 202 194 171 140 120 55 355 322 313 305 298 296 297 298 299 303 304 306 316 312 310 308 306 311 314 316 315 313 312 309 306 303
184 183 180 179 177 170 173 188 202 208 209 200 198 192 168 163 182 229 273 283 282 278 277 281 288 293 293 291 296 302 301 299 299 299 302 309 310 311 311 309 307 305 302
185 181 179 180 175 171 178 193 196 207 207 206 205 196 188 186 197 210 237 261 268 273 283 286 290 292 302 308 304 300 299 295 296 296 300 297 299 305 306 307 306 303 300
182 181 183 180 173 176 179 188 196 204 205 210 206 202 204 205 205 208 229 252 263 272 279 287 283 298 300 300 297 296 299 296 294 295 294 292 292 293 299 302 302 300 298
185 183 184 177 173 177 180 181 187 193 203 208 206 210 216 217 216 213 231 249 262 269 276 297 314 295 299 303 300 296 297 297 294 294 291 291 288 289 289 297 300 300 298
186 184 183 177 176 172 167 163 173 193 209 212 216 223 223 222 225 223 237 251 260 269 277 280 288 288 284 293 306 308 295 293 289 284 285 291 290 290 291 291 292 294 294
185 185 184 181 179 168 159 166 180 206 214 231 233 228 222 222 229 231 251 260 261 261 269 280 284 291 287 288 301 308 297 280 282 283 281 285 288 290 289 292 289 286 288
191 190 188 187 182 180 176 167 170 171 195 215 230 227 221 224 234 243 241 250 258 264 276 283 284 281 285 306 302 314 311 305 292 306 288 288 290 292 295 295 290 287 286
197 194 191 189 185 183 172 151 145 138 197 229 224 225 231 234 242 246 250 249 254 247 260 271 273 268 284 288 252 270 301 305 313 299 300 296 293 296 295 295 292 293 292
202 193 190 185 183 180 172 170 171 182 199 213 210 218 239 245 245 245 250 251 252 248 254 266 280 262 272 290 285 244 251 277 297 305 305 297 298 300 300 299 298 296 295
195 188 186 181 182 179 178 179 179 193 202 209 217 233 242 246 245 248 250 250 249 247 253 261 269 263 254 264 277 279 279 276 266 286 301 307 305 298 297 298 294 294 296
184 183 181 182 185 182 182 182 186 193 199 208 220 231 238 239 246 250 251 245 245 247 254 259 257 256 254 258 266 268 272 275 282 283 291 300 302 304 300 296 294 296 296